Weather History for Billings, MT

Change the Weather History Date:

Sunday, April 28, 2013

  Actual Average Record
Temperature  
Mean Temperature 59 °F 50 °F  
Max Temperature 65 °F 62 °F 88 °F (1987)
Min Temperature 52 °F 38 °F 18 °F (1954)
Degree Days  
Heating Degree Days 6 15  
Month to date heating degree days 651 537  
Since 1 July heating degree days 6054 6347  
Cooling Degree Days 0 0  
Month to date cooling degree days 0 0  
Year to date cooling degree days 0 0  
Growing Degree Days 9 (Base 50)    
Moisture  
Dew Point 31 °F    
Average Humidity 36    
Maximum Humidity 46    
Minimum Humidity 25    
Precipitation  
Precipitation T in 0.07 in 2.53 in (1978)
Month to date precipitation 1.02 1.53  
Year to date precipitation 2.16 3.55  
Snow  
Snow 0.00 in 0.20 in 8.30 in (1970)
Month to date snowfall 5.6 7.9  
Since 1 July snowfall 40.4 52.6  
Snow Depth 0.00 in    
Sea Level Pressure  
Sea Level Pressure 29.83 in    
Wind  
Wind Speed 7 mph (NW)    
Max Wind Speed 23 mph    
Max Gust Speed 29 mph    
Visibility 10 miles    
Events Rain    
T = Trace of Precipitation, MM = Missing Value Source: NWS Daily Summary

Daily Weather History Graph

Daily Weather History Graph

Search for Another Location

Airport:

Trip Planner

Search our weather history database for the weather conditions in past years. The results will help you decide how hot, cold, wet, or windy it might be!

Date:

Astronomy

Apr. 28, 2013 Rise Set
Actual Time 6:05 AM MDT 8:18 PM MDT
Civil Twilight 5:33 AM MDT 8:51 PM MDT
Nautical Twilight 4:52 AM MDT 9:31 PM MDT
Astronomical Twilight 4:07 AM MDT 10:17 PM MDT
Moon 11:57 PM MDT (4/28) 8:19 AM MDT (4/28)
Length of Visible Light 15h 17m
Length of Day
14h 12m
Waning Gibbous, 88% of the Moon is Illuminated
Apr 28
Waning Gibbous
May 2
Last Quarter
May 9
New
May 17
First Quarter
May 24
Full

Hourly Weather History & Observations

Time (MDT) Temp. Dew Point Humidity Pressure Visibility Wind Dir Wind Speed Gust Speed Precip Events Conditions
12:53 AM 60.1 °F 25.0 °F 26% 29.77 in 10.0 mi NW 15.0 mph - N/A   Scattered Clouds
1:53 AM 60.1 °F 26.1 °F 27% 29.79 in 10.0 mi NW 10.4 mph 17.3 mph N/A   Mostly Cloudy
2:53 AM 59.0 °F 27.0 °F 29% 29.79 in 10.0 mi Variable 5.8 mph - N/A   Overcast
3:53 AM 59.0 °F 28.0 °F 31% 29.81 in 10.0 mi NW 5.8 mph - N/A   Overcast
4:53 AM 57.0 °F 30.0 °F 36% 29.83 in 10.0 mi WNW 9.2 mph - N/A   Overcast
5:53 AM 57.9 °F 30.9 °F 36% 29.84 in 10.0 mi Calm Calm - N/A   Overcast
6:53 AM 55.4 °F 30.2 °F 38% 29.95 in 10.0 mi NW 9.2 mph - N/A   Mostly Cloudy
7:53 AM 55.9 °F 30.0 °F 37% 29.90 in 10.0 mi NNW 19.6 mph 26.5 mph N/A   Mostly Cloudy
8:53 AM 55.9 °F 30.0 °F 37% 29.91 in 10.0 mi North 12.7 mph 26.5 mph N/A   Mostly Cloudy
9:53 AM 55.9 °F 30.0 °F 37% 29.93 in 10.0 mi NE 11.5 mph - N/A   Mostly Cloudy
10:53 AM 55.0 °F 33.1 °F 43% 29.96 in 10.0 mi North 9.2 mph - 0.00 in Rain Light Rain
11:53 AM 57.0 °F 34.0 °F 42% 29.93 in 10.0 mi Variable 3.5 mph - 0.00 in   Mostly Cloudy
12:53 PM 60.1 °F 34.0 °F 38% 29.91 in 10.0 mi East 4.6 mph - N/A   Mostly Cloudy
1:53 PM 62.1 °F 30.9 °F 31% 29.88 in 10.0 mi NE 5.8 mph - N/A   Mostly Cloudy
2:53 PM 62.6 °F 30.2 °F 30% 29.91 in 10.0 mi Calm Calm - N/A   Mostly Cloudy
3:53 PM 64.0 °F 30.0 °F 28% 29.83 in 10.0 mi Calm Calm - N/A   Partly Cloudy
4:53 PM 60.1 °F 37.0 °F 42% 29.83 in 10.0 mi Calm Calm - 0.00 in   Mostly Cloudy
5:53 PM 63.0 °F 30.9 °F 30% 29.79 in 10.0 mi Variable 3.5 mph - N/A   Partly Cloudy
6:53 PM 63.0 °F 30.9 °F 30% 29.77 in 10.0 mi SSW 8.1 mph - N/A   Scattered Clouds
7:53 PM 61.0 °F 30.9 °F 32% 29.75 in 10.0 mi SSW 5.8 mph - N/A   Partly Cloudy
8:53 PM 57.9 °F 32.0 °F 37% 29.75 in 10.0 mi South 6.9 mph - N/A   Partly Cloudy
9:53 PM 54.0 °F 33.1 °F 45% 29.75 in 10.0 mi South 5.8 mph - N/A   Clear
10:53 PM 55.0 °F 32.0 °F 42% 29.73 in 10.0 mi WSW 9.2 mph - N/A   Scattered Clouds
11:53 PM 54.0 °F 33.1 °F 45% 29.71 in 10.0 mi West 15.0 mph - N/A   Partly Cloudy